Location: Home
(42.5358°N, 72.7383°W)
Time: 15:43:54
(UTC-05:00)

DX 1 - Visible Passes

Search period start: 19 January 2022 00:00
Search period end: 29 January 2022 00:00
Orbit: 617 x 631 km, 98.4° (Epoch: 19 January)

Date Brightness Start Highest point End Pass type
(mag) Time Alt. Az. Time Alt. Az. Time Alt. Az.
20 Jan ? 05:57:32 10° E 05:58:56 11° ENE 06:00:22 10° NE visible
21 Jan ? 06:14:26 10° ESE 06:17:15 17° ENE 06:20:03 10° NNE visible
22 Jan ? 06:32:03 10° ESE 06:35:35 25° ENE 06:39:09 10° NNE visible
25 Jan ? 05:54:58 10° ENE 05:55:28 10° ENE 05:55:57 10° NE visible
26 Jan ? 06:11:12 10° E 06:13:44 15° ENE 06:16:17 10° NNE visible
27 Jan ? 06:28:41 10° ESE 06:32:04 23° ENE 06:35:27 10° NNE visible
